User: anonymous   Login
Location: Unspecified
(0.0000°N, 0.0000°E)
Time: 15:14:36
(UTC+00:00)
Language:

Safir 2 - Orbit

View from above orbital plane
View from above orbital plane
View from above satellite
View from above satellite

Ground track
Ground track

The orbit data is extracted from the following two-line orbital elements,

1 25399U 98043F   17323.88510653 +.00000005 +00000-0 +20862-4 0  9991
2 25399 098.5930 264.4482 0001929 150.6570 209.4718 14.24598106005409
Epoch (UTC): 19 November 2017 21:14:33
Eccentricity: 0.0001929
inclination: 98.5930°
perigee height: 808 km
apogee height: 811 km
right ascension of ascending node: 264.4482°
argument of perigee: 150.6570°
revolutions per day: 14.24598106
mean anomaly at epoch: 209.4718°
orbit number at epoch: 540

The dashed part of the orbit path shows where the satellite is in the earth's shadow,  

DLR